Location: Orange
(33.2833°S, 149.1000°E)
Time: 17:49:29
(UTC+11:00)

Hubble Space Telescope - Pass Details

Date: 07 October 2022
Orbit: 530 x 534 km, 28.5° (Epoch: 04 December)

Event Time Altitude Azimuth Distance (km) Brightness Sun altitude
Exits shadow 05:40:56 17° 295° (WNW) 1,404 2.3 -11.6°
Maximum altitude 05:43:27 31° 348° (NNW) 949 1.8 -11.1°
Drops below altitude 10° 05:47:07 10° 51° (NE) 1,783 4.0 -10.4°
Sets 05:49:33 0° 61° (ENE) 2,672 5.1 -9.9°
